Location: Gniazdowice
(50.2124°N, 20.2673°E)
Time: 01:57:48
(UTC+00:00)

Cosmos 158 Rocket - Pass Details

Date: 23 May 2024
Orbit: 695 x 790 km, 74.0° (Epoch: 18 June)

Event Time Altitude Azimuth Distance (km) Brightness Sun altitude
Rises 01:36:10 0° 337° (NNW) 3,295 7.6 -8.7°
Reaches altitude 10° 01:38:35 10° 340° (NNW) 2,366 6.9 -8.5°
Maximum altitude 01:43:58 69° 64° (ENE) 847 4.5 -7.9°
Drops below altitude 10° 01:49:18 10° 147° (SSE) 2,340 6.4 -7.3°
Sets 01:51:41 0° 150° (SSE) 3,256 7.1 -7.0°
